Theta_e
297 298 297 298 298 298 298 298 298 299 300 300 300 301 301 302 302 302 303 304 304 305 306 305 306 306 307 306 304 304 302 301 298 302 302 300 296 295 294 292 292 292 293
296 295 295 295 294 294 294 294 294 295 296 296 296 296 296 297 297 297 297 297 299 299 300 301 301 303 302 304 304 302 301 302 299 297 300 299 293 293 293 291 291 290 290
294 293 292 292 292 291 292 292 292 292 292 292 292 292 292 292 293 293 293 293 294 295 296 296 297 299 297 298 299 300 300 300 299 297 297 299 292 288 289 287 288 289 289
292 291 290 290 291 291 291 290 290 290 290 290 290 289 289 289 289 287 288 290 292 293 293 293 294 293 293 294 294 294 295 294 295 294 294 295 295 286 285 286 288 286 288
290 290 289 289 290 289 288 288 288 287 288 287 287 287 287 288 287 286 286 288 289 289 289 290 290 290 289 291 291 291 290 290 291 290 290 291 291 284 284 286 285 288 288
288 287 287 287 286 285 285 285 285 285 285 285 285 285 284 285 290 291 289 284 285 286 287 288 289 288 289 290 291 292 292 289 287 288 288 287 288 289 286 287 287 285 285
285 284 284 284 284 284 284 284 284 284 284 284 283 283 283 283 289 290 289 284 284 284 285 286 287 288 288 287 288 290 289 290 291 289 287 287 287 288 288 288 286 286 286
284 283 283 283 282 283 283 283 283 283 282 282 282 282 282 283 288 288 288 284 283 283 284 285 285 286 285 285 285 286 286 286 286 286 287 287 287 288 287 287 287 287 285
283 283 282 281 280 281 278 281 281 279 279 278 281 279 279 281 286 287 286 283 283 284 285 286 286 285 287 288 285 284 284 285 288 289 290 290 290 290 290 287 284 284 282
282 282 282 280 276 276 279 278 279 277 281 281 281 277 277 278 285 287 286 282 282 283 284 285 285 285 287 288 285 284 282 283 284 285 286 287 287 286 288 286 285 282 281
280 280 280 279 276 276 276 276 274 275 277 273 277 278 277 278 280 286 287 282 281 282 282 282 284 286 287 287 287 284 283 285 285 284 284 284 283 282 282 284 285 284 281
276 276 273 271 274 276 270 271 272 272 277 281 282 282 277 277 282 285 286 286 285 283 282 282 283 286 286 286 285 286 286 285 283 283 282 279 279 281 281 283 284 282 282
267 266 267 268 270 271 269 269 270 271 280 280 281 281 282 283 283 285 285 285 286 284 284 284 286 285 285 284 285 285 283 283 282 281 279 279 280 281 281 277 277 277 278
263 265 267 267 267 267 271 272 269 270 272 279 279 279 280 281 282 282 283 283 284 284 284 283 283 284 284 284 283 284 283 282 281 280 280 279 281 279 275 276 276 277 275
264 267 267 268 265 269 271 271 272 273 275 278 280 280 279 279 282 285 284 283 283 284 284 281 281 281 280 280 281 281 281 281 280 281 281 280 277 274 274 275 276 277 275
264 266 266 266 265 269 269 271 277 279 281 283 284 283 282 284 285 286 285 284 284 285 281 280 279 279 279 279 278 279 279 279 279 280 280 279 276 274 274 274 276 276 275
259 262 263 265 265 265 265 267 269 272 277 279 281 282 284 284 285 285 284 284 284 284 279 278 279 278 278 278 277 277 276 277 277 277 275 276 274 273 273 275 276 274 273
254 260 258 261 262 262 262 264 266 267 269 271 276 280 282 283 284 284 284 283 276 279 279 278 277 277 276 275 275 274 275 273 268 270 270 271 273 273 273 272 273 273 272
256 257 257 258 259 261 262 264 269 270 271 272 274 277 279 282 283 283 282 278 275 276 274 275 274 273 271 272 273 271 268 266 264 263 263 264 266 268 266 266 267 268 268
254 259 259 257 258 259 261 266 268 268 269 270 271 271 275 273 268 271 271 270 270 272 272 271 270 270 270 269 269 267 267 264 262 263 262 259 259 261 262 262 264 264 264
255 256 260 257 257 258 259 261 264 265 266 267 269 271 277 270 269 269 267 266 266 266 267 268 268 267 266 266 265 264 264 262 259 259 258 259 260 260 261 262 261 261 259
254 256 256 255 257 259 259 259 261 264 266 266 267 268 273 264 265 266 266 264 264 264 264 264 264 263 262 262 262 261 261 260 260 259 259 259 258 259 259 259 258 257 256
255 255 255 255 256 258 257 256 260 260 263 261 262 264 259 260 262 263 264 264 263 263 263 262 262 262 262 262 261 260 258 258 258 258 257 257 256 255 254 255 253 253 253
254 254 254 254 254 254 254 255 256 259 260 259 258 258 258 258 260 261 262 263 263 263 262 262 262 261 261 261 260 259 257 257 257 255 256 256 253 252 252 250 251 250 251
252 253 253 253 252 253 255 254 255 255 256 257 259 257 257 258 261 261 262 263 263 262 262 262 262 261 261 260 259 258 259 260 257 257 255 254 253 251 248 248 248 248 249
253 252 252 252 252 251 251 253 254 255 256 257 257 257 257 258 260 262 261 262 263 262 262 262 262 261 261 260 260 261 260 261 258 258 254 254 252 249 246 246 246 246 246
Wind_Speed
7 8 8 7 8 8 8 7 7 7 7 7 6 6 6 7 6 6 6 5 5 6 4 5 7 6 6 5 5 6 8 7 12 12 6 4 5 7 6 5 6 7 7
7 8 9 9 8 8 8 7 7 7 7 7 7 6 6 6 6 6 6 6 6 7 7 7 8 5 7 8 6 9 8 9 9 19 11 7 7 7 6 5 6 6 6
8 9 9 8 8 7 7 7 7 6 6 6 6 6 6 6 6 5 5 5 6 8 9 9 10 8 9 7 9 9 8 8 8 10 13 7 3 2 5 3 5 7 6
8 8 8 7 6 6 6 6 6 6 6 6 6 6 7 6 6 6 6 6 8 8 8 8 8 8 9 9 8 8 8 8 9 8 11 10 7 1 1 4 7 5 9
8 8 7 5 5 5 6 6 6 6 6 6 6 7 6 5 4 6 6 7 9 11 11 11 11 10 12 12 8 8 7 7 7 8 9 9 8 3 4 3 6 6 6
7 7 6 6 6 5 5 5 6 6 6 5 5 5 6 4 9 9 9 5 6 7 9 9 10 10 12 17 18 16 12 8 8 6 9 10 10 8 2 6 8 5 8
6 5 5 5 6 6 5 6 6 6 5 5 5 5 7 6 11 14 13 5 6 7 8 9 11 8 11 10 12 15 14 15 15 10 11 10 11 9 7 10 8 8 10
6 5 5 5 5 6 6 5 5 3 4 5 5 5 6 6 15 16 16 7 7 7 7 9 11 12 8 9 10 12 11 9 9 7 9 11 10 9 9 10 11 11 6
5 5 5 4 4 4 4 5 5 3 4 3 4 5 6 8 14 16 14 6 8 10 11 11 10 11 14 17 12 13 13 11 8 13 16 20 22 21 16 9 8 8 6
5 4 4 2 2 3 3 4 3 3 6 5 8 4 6 7 12 14 13 4 9 9 9 10 13 12 19 17 9 9 11 10 10 10 8 8 15 11 15 9 9 6 3
4 3 3 3 3 4 4 3 3 5 5 4 6 6 6 6 7 13 15 5 5 9 9 9 8 18 19 18 16 7 9 13 12 8 8 6 7 6 4 5 6 4 1
3 2 2 3 3 2 3 4 4 4 6 9 11 10 3 4 7 12 17 14 14 9 10 9 9 17 18 17 14 16 16 13 6 5 5 4 3 5 5 2 3 4 4
2 1 2 3 4 3 3 4 3 3 5 8 8 8 8 6 5 15 14 15 16 10 7 12 18 17 17 12 13 13 6 4 5 5 4 4 5 4 3 3 4 5 8
1 1 2 1 3 3 2 2 2 3 3 6 6 9 9 9 7 5 3 6 10 8 10 5 11 14 12 11 5 6 2 3 4 4 5 2 3 2 2 1 2 2 3
1 2 3 3 4 4 3 3 3 4 6 7 7 7 9 10 9 11 11 7 8 10 9 2 4 5 5 3 4 5 3 5 4 5 4 3 2 2 3 2 1 2 3
3 3 3 2 2 3 4 7 9 15 16 18 20 16 10 19 25 18 18 19 19 20 4 3 4 3 4 3 3 4 2 5 5 5 3 3 2 2 2 3 3 3 3
2 2 2 3 3 3 3 4 10 8 16 17 18 20 22 23 23 17 20 19 19 18 3 3 3 2 2 3 3 2 2 3 5 4 4 4 2 2 3 3 3 3 4
0 3 2 2 3 3 2 3 4 8 11 10 12 17 20 23 22 20 18 17 6 8 5 4 3 2 1 2 2 2 2 3 2 3 3 4 4 3 3 3 3 3 3
1 2 2 2 3 3 3 3 5 7 8 10 10 12 13 21 19 19 18 7 6 6 2 1 1 0 1 2 1 1 0 1 2 3 3 3 4 2 3 2 2 3 3
3 6 4 3 3 2 3 4 5 6 8 8 8 9 10 5 4 4 3 2 3 3 2 1 0 1 1 1 1 1 2 2 2 2 2 2 2 2 2 2 2 2 2
2 3 4 2 2 3 3 3 3 4 7 8 8 9 19 5 6 5 3 3 3 3 4 3 1 1 2 2 2 2 2 2 2 2 2 2 2 2 2 2 2 2 3
3 3 1 2 3 3 3 3 3 6 7 7 8 8 18 3 3 4 3 2 2 3 3 3 2 2 2 2 2 2 1 2 2 2 2 1 1 1 1 2 2 2 2
2 1 1 2 3 4 3 3 4 3 5 5 5 6 3 3 3 3 3 2 2 2 2 2 2 2 1 2 2 2 1 1 0 1 1 1 1 1 1 1 2 2 1
1 1 2 3 3 2 3 4 4 6 5 5 5 4 4 3 3 3 2 2 3 3 2 2 2 3 2 2 2 1 1 1 1 1 1 1 1 0 1 2 1 2 2
1 2 3 3 3 3 4 4 4 4 4 5 5 4 3 3 3 3 2 2 3 3 4 3 3 4 4 5 4 4 4 3 2 1 1 2 2 3 2 2 2 1 2
2 3 3 3 3 3 3 4 5 4 5 5 5 5 4 4 4 4 3 3 4 4 5 4 5 6 6 5 6 7 8 8 6 6 3 3 3 2 2 3 3 2 3
Wind_Direction
56 59 55 47 45 48 50 41 31 31 24 24 18 17 14 10 8 359 337 320 315 305 289 272 274 268 266 256 236 236 237 233 260 280 271 233 229 234 241 224 234 235 243
68 65 60 57 51 53 48 41 33 34 25 21 16 17 19 8 1 2 341 340 331 311 305 298 293 288 268 269 261 254 250 243 252 273 277 270 227 220 235 236 236 234 238
66 67 57 51 51 48 41 36 34 32 27 23 22 14 8 6 4 356 342 333 327 316 314 309 306 305 294 290 279 274 272 267 253 265 280 277 246 193 245 256 251 257 253
69 68 62 48 47 41 36 33 31 26 25 15 14 4 2 0 359 351 346 337 327 316 309 302 298 296 292 292 288 284 281 276 274 271 278 282 279 156 221 255 263 229 260
78 71 64 57 47 38 34 26 24 27 21 8 357 348 343 347 338 339 336 328 319 312 307 303 297 295 282 285 288 285 283 280 279 277 279 283 277 259 226 230 249 266 256
70 68 58 54 51 42 32 26 29 18 6 357 338 332 336 330 318 322 326 302 290 287 297 301 301 297 298 299 295 286 276 278 273 274 280 280 287 288 254 250 258 261 286
88 78 66 55 43 28 18 17 13 357 338 314 316 333 325 315 326 328 323 298 291 284 287 295 304 302 304 294 281 291 298 291 279 278 277 276 286 290 292 289 261 249 259
86 75 55 45 31 15 13 1 338 309 316 320 318 318 314 313 328 329 327 313 305 294 293 309 310 309 297 301 301 303 299 291 285 283 273 282 278 280 269 273 277 276 259
82 68 49 44 20 359 340 333 315 314 310 287 292 307 306 308 320 328 332 318 313 311 313 312 306 305 309 306 309 308 306 304 291 296 293 297 300 296 294 292 279 255 259
71 53 35 34 355 315 302 312 276 284 297 306 309 284 270 292 314 324 330 310 319 315 312 307 307 309 311 313 310 306 306 312 311 301 293 291 305 300 298 282 289 253 236
63 28 14 355 319 286 287 285 293 307 310 308 310 310 293 284 299 319 324 316 302 310 313 315 313 314 313 314 314 309 299 308 312 303 299 289 286 283 272 288 276 269 265
38 354 316 285 284 297 320 310 328 324 322 325 322 317 299 306 327 329 324 316 311 308 306 309 300 302 314 314 319 316 319 322 295 285 279 290 302 324 312 320 1 39 23
60 339 280 297 297 292 321 308 326 309 320 316 312 305 310 309 290 314 309 311 309 304 301 296 311 315 313 314 319 324 347 332 312 325 330 331 326 319 336 25 47 56 55
127 263 275 338 331 336 319 285 285 284 276 293 297 304 301 304 296 284 287 301 302 299 296 297 303 306 315 315 319 322 332 303 288 287 324 276 282 330 1 26 52 50 55
77 355 358 28 353 326 307 291 284 248 257 287 290 284 293 293 290 289 310 311 306 300 297 272 290 304 314 315 324 320 347 329 337 327 333 324 356 16 2 25 46 29 71
41 26 7 338 327 315 307 309 297 299 300 294 292 290 284 282 289 285 293 297 302 305 270 266 288 293 308 319 321 323 359 342 332 324 346 1 23 32 14 12 26 64 90
119 334 331 347 314 302 316 310 316 319 309 305 304 299 296 294 287 278 288 288 295 304 240 234 260 266 295 303 322 329 328 350 337 353 0 0 7 36 42 32 50 53 55
322 289 244 258 267 281 285 280 300 307 315 315 312 307 304 299 294 291 284 291 295 287 249 228 223 234 247 293 312 336 342 355 340 9 17 10 9 15 25 30 29 61 96
239 266 265 267 274 272 271 273 284 298 304 305 311 310 308 300 294 294 292 280 274 279 292 249 185 311 342 332 327 39 142 8 13 22 11 23 5 43 41 63 61 63 99
229 230 233 227 257 280 268 275 305 302 298 300 305 307 312 333 339 300 283 317 298 300 320 306 26 50 37 18 360 12 49 42 36 44 39 30 8 43 55 63 43 90 51
242 260 253 274 265 259 259 261 276 302 297 290 295 300 310 335 316 314 318 329 334 331 336 338 356 35 25 17 14 29 60 62 44 50 52 8 24 53 43 70 80 68 91
223 237 253 249 262 271 267 274 275 276 287 299 308 306 318 311 298 312 314 328 328 323 330 327 345 14 17 11 358 3 53 77 44 26 30 28 38 49 58 76 81 86 86
221 239 300 285 261 279 291 285 278 277 287 282 286 296 294 289 287 292 306 311 307 308 319 325 330 334 345 331 339 344 28 58 15 21 19 6 33 61 66 115 119 82 86
261 225 253 266 279 284 282 280 288 281 288 281 282 278 278 280 282 282 268 272 285 282 272 280 278 291 298 297 295 284 287 280 46 65 49 99 154 85 81 90 130 118 147
180 237 244 248 252 260 278 275 273 278 286 288 285 280 282 280 280 269 254 247 263 272 272 263 259 269 273 276 271 268 270 297 196 174 165 136 152 151 141 138 152 140 138
211 224 241 257 262 253 254 269 272 281 286 285 283 286 277 274 270 273 272 264 264 263 266 262 258 255 261 259 259 261 254 250 230 211 188 178 172 169 143 162 172 161 174